Regional Weather Roundup
Issued by NWS

Home | Current Version | Previous Version | Graphics & Text | Print | Product List | Glossary On
Versions: 1 2 3 4 5 6 7 8 9 10 11 12 13 14 15 16 17 18 19 20 21 22 23 24 25 26 27 28 29 30 31 32 33 34 35 36 37 38 39 40 41 42 43 44 45 46 47 48 49 50
000
ASUS43 KLOT 270406
RWRIL

ILLINOIS REGIONAL WEATHER ROUNDUP
NATIONAL WEATHER SERVICE CHICAGO/ROMEOVILLE IL
1000 PM CST THU FEB 26 2015

NOTE: "FAIR" INDICATES FEW OR NO CLOUDS BELOW 12,000 FEET WITH NO
SIGNIFICANT WEATHER AND/OR OBSTRUCTIONS TO VISIBILITY.

* THESE STATIONS ARE NOT UNDER NWS QUALITY CONTROL. THEY ALSO MAY NOT
  REPORT WEATHER SUCH AS PRECIPITATION OR FOG.

ILZ001-002-007-009-015-016-024-270500-
NORTHWEST ILLINOIS

CITY           SKY/WX    TMP DP  RH WIND       PRES   REMARKS
MOLINE         CLEAR      2  -8  63 W7        30.50R WCI -11
STERLING*      CLEAR      0  -8  71 W5        30.46R WCI -10
SAVANNA*       CLEAR      0  -8  69 CALM      30.48R
$$

ILZ003-004-008-010-011-017-018-270500-
NORTH CENTRAL ILLINOIS

CITY           SKY/WX    TMP DP  RH WIND       PRES   REMARKS
ROCKFORD       CLEAR     -3 -11  68 S3        30.45R
FREEPORT*      CLEAR     -2 -10  68 W6        30.46R WCI -14
ROCHELLE*      CLEAR     -8 -13  79 CALM      30.45R
DE KALB*       CLEAR      1  -7  71 NW6       30.42R WCI -11
PERU*          CLEAR      3  -4  72 W9        30.47R WCI -12
$$

ILZ005-006-012>014-019>023-270500-
NORTHEAST ILLINOIS

CITY           SKY/WX    TMP DP  RH WIND       PRES   REMARKS
CHICAGO-OHARE  PTCLDY     3  -8  60 NW9       30.41R WCI -12
CHICAGO-MIDWAY PTCLDY    10  -4  53 NW9       30.42R WCI  -3
AURORA         CLEAR    -10 -16  74 W7        30.44R WCI -25
LANSING*       CLEAR      9  -3  59 NW7       30.42R WCI  -3
JOLIET*        CLEAR      5  -5  62 CALM      30.44S
WAUKEGAN       CLEAR      2  -8  63 NW5       30.41R WCI  -8
DUPAGE AIRPORT FAIR       2  -7  66 NW3       30.41R
KANKAKEE*      CLEAR      6  -3  67 NW6       30.44R WCI  -4
WHEELING       CLEAR      4  -7  60 NW6       30.43R WCI  -7
MORRIS*        CLEAR     -8 -12  82 W8        30.44R WCI -23
ROMEOVILLE*    CLEAR      3  -6  65 NW7       30.43R WCI  -9
NORTHERLY ISL    N/A     12   0  58 W8          N/A  WCI   1
$$

LMZ740>746-270500-
SOUTHERN LAKE MICHIGAN

STATION/POSITION SKY/WX   TEMP    WIND        PRES    VSBY  WAVE
                          AIR SEA DIR/SP/G                  HT/PER
                          (F)     (DEG/KT/KT) (MB)    (MI)  (FT/S)
WAUKEGAN HARBOR             7     320/  6/ 11   N/A
HARRISON CRIB              11     310/ 16/ 19   N/A
BURNHAM HARBOR             12     310/  6/ 12   N/A
CALUMET HARBOR             10     280/  6/  9 1028.5R
MICHIGAN CITY              11     320/  3/  4   N/A
$$

ILZ025>027-034>036-040-047-049-050-058-095>099-270500-
WEST-CENTRAL ILLINOIS

CITY           SKY/WX    TMP DP  RH WIND       PRES   REMARKS
QUINCY         CLEAR      2  -7  66 NW9       30.52R WCI -13
GALESBURG*     CLEAR     -3  -8  80 W6        30.49R WCI -15
MACOMB*        CLEAR      0  -6  76 NW13      30.53R WCI -18
JACKSONVILLE*  CLEAR      6  -3  66 NW9       30.51R WCI  -8
PITTSFIELD*    CLEAR      5  -3  69 NW7       30.53R WCI  -7
$$

ILZ028>032-037-038-041>044-048-051>054-059>061-270500-
CENTRAL ILLINOIS

CITY           SKY/WX    TMP DP  RH WIND       PRES   REMARKS
PONTIAC        CLOUDY     7   0  70 NW6       30.46R WCI  -3
BLOOMINGTON    CLOUDY    11   3  70 NW14      30.44R WCI  -5
DECATUR        CLOUDY    12   6  77 N18       30.45R HAZE    WCI  -6
PEORIA         CLEAR      5  -4  66 NW6       30.49R WCI  -6
LACON*         CLEAR      2  -5  69 N6        30.48R WCI  -9
LINCOLN*       CLOUDY    11   4  72 NW9       30.51R WCI  -1
SPRINGFIELD    CLEAR      8  -1  66 NW12      30.49R WCI  -7
TAYLORVILLE    FLURRIES  10   5  79 NW12      30.47S WCI  -4
$$

ILZ033-039-045-046-055>057-062-063-270500-
EAST-CENTRAL ILLINOIS

CITY           SKY/WX    TMP DP  RH WIND       PRES   REMARKS
CHAMPAIGN      CLOUDY    11   2  67 NW8       30.43R WCI  -1
DANVILLE*      CLOUDY    10   2  70 NW10G16   30.39R WCI  -4
RANTOUL*       CLOUDY    12   4  71 NW9       30.43R WCI  -1
MATTOON        CLOUDY    12   4  70 N13       30.43R WCI  -3
PARIS*         MOCLDY     9   4  83 NW8       30.44R WCI  -4
$$

ILZ079-100>102-270500-
SOUTHWEST ILLINOIS

CITY           SKY/WX    TMP DP  RH WIND       PRES   REMARKS
ALTON          CLEAR     10  -2  58 NW8       30.51R WCI  -2
BELLEVILLE     PTCLDY    13   2  63 NW16      30.49R WCI  -3
CAHOKIA*       CLEAR     13   2  61 N16       30.52R WCI  -3
SPARTA*        MOCLDY    16   6  64 N12       30.49R WCI   3
$$

ILZ064>066-069>071-074>076-080>082-084>086-088>090-092>094-270500-
SOUTH-CENTRAL ILLINOIS

CITY           SKY/WX    TMP DP  RH WIND       PRES   REMARKS
CARBONDALE     FLURRIES  20  10  65 N14       30.46R WCI   7
CAIRO*         CLEAR     24  15  67 N10       30.45R WCI  14
EFFINGHAM*     LGT SNOW  16   9  74 N9        30.46R WCI   4
MARION         CLOUDY    21  12  68 NW3       30.46R
MT. VERNON     CLOUDY    18  10  73 NW5       30.46R WCI  11
CENTRALIA*     CLOUDY    16   9  74 NW13G18   30.46R WCI   2
SALEM*         LGT SNOW  17  11  78 NW14      30.46R WCI   3
METROPOLIS*    PTCLDY    21  16  79 N6        30.43R WCI  13
$$

ILZ067-068-072-073-078-083-087-091-270500-
SOUTHEAST ILLINOIS

CITY           SKY/WX    TMP DP  RH WIND       PRES   REMARKS
LAWRENCEVILLE  FAIR      14   6  70 N9        30.44R WCI   2
FLORA*         LGT SNOW  18  15  86 NW8       30.45R WCI   8
FAIRFIELD*     LGT SNOW  19  16  86 NW6       30.44R WCI  11
HARRISBURG*    FLURRIES  19  14  80 NW7       30.46R WCI  10
ROBINSON*      FAIR      11   6  81 N5        30.44S WCI   3
CARMI*         CLOUDY    22  18  83 N9        30.43R WCI  12
$$

ABBREVIATIONS USED IN REMARKS
   TC - TEMPERATURE IN CELSIUS
  WCI - WIND CHILL INDEX
   HX - HEAT INDEX
  VSB - VISIBILITY
$$



USA.gov is the U.S. government's official web portal to all federal, state and local government web resources and services.